Location: Nelson
(41.2830°S, 173.2830°E)
Time: 04:38:18
(UTC+13:00)

SPOT 3 Rocket - Pass Details

Date: 24 January 2019
Orbit: 779 x 794 km, 98.8° (Epoch: 17 October)

Event Time Altitude Azimuth Distance (km) Brightness Sun altitude
Rises 21:56:43 0° 169° (S) 3,319 7.2 -10.6°
Reaches altitude 10° 21:59:04 10° 170° (S) 2,380 6.4 -11.0°
Maximum altitude 22:04:19 73° 254° (WSW) 833 3.9 -11.7°
Drops below altitude 10° 22:09:28 10° 337° (NNW) 2,341 5.8 -12.5°
Sets 22:11:46 0° 339° (NNW) 3,260 6.6 -12.8°
